"2010-07-20 00:00:00",14915,6.005,217.5,2.351,0.149,24.08,111.1452,27.84,28.52,20.84,0,111.2,13.11,28.69,179.5
"2010-07-20 00:00:30",14916,6.396,217.4,1.535,0.08,23.9,111.1236,27.78,28.55,22.15,0,111.3,13.1,28.63,179.4
"2010-07-20 00:01:00",14917,6.373,219.3,1.006,0.177,23.86,111.0991,27.72,28.54,22.68,0,111.2,13.11,28.57,181.3
"2010-07-20 00:01:30",14918,6.351,220.9,1.414,0.088,24.01,111.0702,27.65,28.52,22.38,0,111.3,13.11,28.49,182.9
"2010-07-20 00:02:00",14919,6.474,223.1,1.022,0.098,24.3,111.0573,27.61,28.49,20.94,0,111.3,13.11,28.46,185.1
"2010-07-20 00:02:30",14920,6.045,221.4,2.208,0.201,24.32,111.073,27.65,28.48,20.3,0,111.3,13.11,28.50,183.4
"2010-07-20 00:03:00",14921,5.868,219.7,1.798,0.095,24.3,111.0806,27.67,28.5,20.69,0,111.3,13.11,28.52,181.7
"2010-07-20 00:03:30",14922,5.69,222.3,1.456,0.185,24.24,111.0812,27.67,28.5,20.48,0,111.3,13.11,28.52,184.3
"2010-07-20 00:04:00",14923,5.37,219.6,2.769,0.17,24.28,111.0826,27.68,28.52,20.22,0,111.3,13.11,28.53,181.6
"2010-07-20 00:04:30",14924,5.35,218.7,2.303,0.174,24.25,111.0904,27.7,28.53,20.24,0,111.3,13.11,28.55,180.7
"2010-07-20 00:05:00",14925,5.635,221.9,2.007,0.14,24.26,111.1039,27.73,28.56,20.08,0,111.3,13.11,28.58,183.9
"2010-07-20 00:05:30",14926,5.342,219.6,1.755,0.123,24.26,111.1149,27.76,28.56,20.01,0,111.3,13.11,28.61,181.6
"2010-07-20 00:06:00",14927,5.356,221.6,1.749,0.234,24.25,111.1149,27.76,28.57,19.95,0,111.3,13.11,28.61,183.6
"2010-07-20 00:06:30",14928,5.608,219.3,3.498,0.366,24.29,111.1149,27.76,28.58,20.18,0,111.3,13.11,28.61,181.3
"2010-07-20 00:07:00",14929,5.566,222.1,2.422,0.235,24.28,111.1193,27.77,28.61,19.98,0,111.3,13.11,28.62,184.1
"2010-07-20 00:07:30",14930,6.004,223.5,4.375,0.209,24.27,111.128,27.79,28.61,20.2,0,111.3,13.11,28.64,185.5
"2010-07-20 00:08:00",14931,5.74,230.4,6.671,0.174,24.28,111.1404,27.83,28.62,20.41,0,111.3,13.11,28.67,192.4
"2010-07-20 00:08:30",14932,5.707,225.1,4.592,0.723,24.35,111.1466,27.84,28.64,20.02,0,111.3,13.11,28.69,187.1
"2010-07-20 00:09:00",14933,5.816,220.8,2.483,0.32,24.18,111.1485,27.85,28.65,20.61,0,111.3,13.11,28.70,182.8
"2010-07-20 00:09:30",14934,6.253,220.2,2.242,0.246,23.91,111.139,27.82,28.67,22.29,0,111.3,13.11,28.67,182.2
"2010-07-20 00:10:00",14935,5.739,220,2.363,0.169,23.86,111.1101,27.75,28.64,22.55,0,111.3,13.11,28.60,182.0
"2010-07-20 00:10:30",14936,5.487,229.9,4.557,0.385,24.22,111.082,27.68,28.61,21.15,0,111.3,13.11,28.52,191.9
"2010-07-20 00:11:00",14937,5.931,223,6.326,0.251,23.94,111.082,27.68,28.57,21.82,0,111.3,13.11,28.52,185.0
"2010-07-20 00:11:30",14938,5.608,221.8,5.265,0.341,23.91,111.0808,27.67,28.55,21.46,0,111.3,13.11,28.52,183.8
"2010-07-20 00:12:00",14939,5.975,215.3,4.393,0.22,23.85,111.0677,27.64,28.54,22.11,0,111.3,13.11,28.49,177.3
"2010-07-20 00:12:30",14940,5.226,221,4.17,0.285,24.1,111.0553,27.61,28.52,21.39,0,111.3,13.11,28.46,183.0
"2010-07-20 00:13:00",14941,5.753,213.6,3.042,0.337,24.18,111.0637,27.63,28.51,21.29,0,111.3,13.11,28.48,175.6
"2010-07-20 00:13:30",14942,6.255,219.3,3.339,0.376,24.22,111.0781,27.67,28.51,20.93,0,111.3,13.11,28.51,181.3
"2010-07-20 00:14:00",14943,5.566,220.4,2.614,0.213,24.23,111.0811,27.67,28.53,20.8,0,111.3,13.11,28.52,182.4
"2010-07-20 00:14:30",14944,5.227,222.7,4.06,0.23,24.17,111.0873,27.69,28.53,20.86,0,111.3,13.1,28.54,184.7
"2010-07-20 00:15:00",14945,5.615,222.6,3.226,0.336,24.25,111.1071,27.74,28.56,20.53,0,111.3,13.1,28.59,184.6
"2010-07-20 00:15:30",14946,5.307,231.9,3.637,0.165,24.39,111.1159,27.76,28.58,20.12,0,111.3,13.1,28.61,193.9
"2010-07-20 00:16:00",14947,5.725,222.5,5.824,0.408,24.12,111.1308,27.8,28.61,20.7,0,111.3,13.1,28.65,184.5
"2010-07-20 00:16:30",14948,5.636,225.6,2.004,0.243,24.2,111.1381,27.82,28.61,20.43,0,111.3,13.1,28.67,187.6
"2010-07-20 00:17:00",14949,5.467,221.3,3.439,0.077,24.03,111.1366,27.82,28.62,20.74,0,111.3,13.1,28.67,183.3
"2010-07-20 00:17:30",14950,5.746,220.4,1.665,0.17,24.14,111.1239,27.78,28.62,20.48,0,111.3,13.1,28.63,182.4
"2010-07-20 00:18:00",14951,5.655,222.5,2.466,0.134,24.25,111.1322,27.8,28.63,20.13,0,111.3,13.1,28.65,184.5
"2010-07-20 00:18:30",14952,5.676,223.8,2.151,0.127,24.16,111.1405,27.83,28.62,20.23,0,111.3,13.1,28.68,185.8
"2010-07-20 00:19:00",14953,5.459,226.9,1.869,0.134,24.21,111.1445,27.84,28.64,19.87,0,111.3,13.11,28.69,188.9
"2010-07-20 00:19:30",14954,5.39,229.5,3.619,0.276,24.05,111.1486,27.85,28.67,19.84,0,111.3,13.11,28.70,191.5
"2010-07-20 00:20:00",14955,5.662,227.4,4.685,0.399,23.88,111.1679,27.9,28.69,20.21,0,111.3,13.11,28.75,189.4
"2010-07-20 00:20:30",14956,5.488,222.5,5.99,0.406,23.69,111.1709,27.9,28.71,20.56,0,111.3,13.11,28.75,184.5
"2010-07-20 00:21:00",14957,5.353,236.6,4.854,0.359,23.84,111.1704,27.9,28.71,20.1,0,111.3,13.11,28.75,198.6
"2010-07-20 00:21:30",14958,5.439,229.2,6.637,0.308,23.74,111.1742,27.91,28.74,20.08,0,111.3,13.11,28.76,191.2
"2010-07-20 00:22:00",14959,5.872,230,4.692,0.342,23.8,111.1838,27.94,28.76,19.92,0,111.3,13.11,28.79,192.0
"2010-07-20 00:22:30",14960,5.3,232.5,4.417,0.272,23.79,111.1998,27.98,28.77,19.91,0,111.3,13.11,28.83,194.5
"2010-07-20 00:23:00",14961,5.401,231.4,3.702,0.251,23.78,111.197,27.97,28.8,19.79,0,111.3,13.11,28.82,193.4
"2010-07-20 00:23:30",14962,5.477,234.4,5.553,0.277,23.78,111.2135,28.01,28.83,19.69,0,111.3,13.11,28.86,196.4
"2010-07-20 00:24:00",14963,5.81,233.9,2.789,0.251,23.76,111.2146,28.02,28.85,19.64,0,111.3,13.11,28.87,195.9
"2010-07-20 00:24:30",14964,5.595,228.9,2.902,0.183,23.76,111.2206,28.03,28.88,19.56,0,111.3,13.11,28.88,190.9
"2010-07-20 00:25:00",14965,5.601,228.7,2.599,0.155,23.75,111.2402,28.08,28.89,19.61,0,111.3,13.11,28.93,190.7
"2010-07-20 00:25:30",14966,5.719,232.9,2.887,0.206,23.76,111.2458,28.1,28.91,19.58,0,111.3,13.11,28.95,194.9
"2010-07-20 00:26:00",14967,5.716,227,2.337,0.297,23.73,111.2458,28.1,28.92,19.53,0,111.3,13.11,28.95,189.0
"2010-07-20 00:26:30",14968,5.533,226.5,2.515,0.239,23.76,111.2458,28.1,28.93,19.47,0,111.3,13.11,28.95,188.5
"2010-07-20 00:27:00",14969,5.853,234.3,3.065,0.298,23.76,111.2483,28.1,28.94,19.56,0,111.3,13.11,28.95,196.3
"2010-07-20 00:27:30",14970,5.604,227.4,3.089,0.17,23.74,111.2486,28.1,28.97,19.6,0,111.3,13.11,28.95,189.4
"2010-07-20 00:28:00",14971,5.989,230.4,3.604,0.209,23.78,111.2531,28.12,28.96,19.59,0,111.3,13.11,28.97,192.4
"2010-07-20 00:28:30",14972,5.757,231.3,2.338,0.106,23.75,111.2565,28.12,28.97,19.58,0,111.3,13.11,28.97,193.3
"2010-07-20 00:29:00",14973,5.614,227.8,1.394,0.074,23.81,111.2654,28.15,28.98,19.45,0,111.3,13.1,29.00,189.8
"2010-07-20 00:29:30",14974,5.984,232.3,2.707,0.222,23.82,111.2771,28.18,28.98,19.39,0,111.3,13.1,29.03,194.3
"2010-07-20 00:30:00",14975,5.978,229,3.505,0.243,23.81,111.2748,28.17,28.99,19.44,0,111.3,13.1,29.02,191.0
"2010-07-20 00:30:30",14976,5.811,226.6,2.481,0.154,23.83,111.271,28.16,28.99,19.63,0,111.3,13.09,29.01,188.6
"2010-07-20 00:31:00",14977,5.726,227,5.103,0.281,23.89,111.2639,28.14,29,19.88,0,111.3,13.09,28.99,189.0
"2010-07-20 00:31:30",14978,5.868,225.4,4.862,0.26,23.94,111.2541,28.12,28.98,19.72,0,111.3,13.09,28.97,187.4
"2010-07-20 00:32:00",14979,5.824,229.1,4.08,0.202,23.87,111.2482,28.1,28.98,19.85,0,111.3,13.09,28.95,191.1
"2010-07-20 00:32:30",14980,5.583,230,2.937,0.238,23.94,111.2436,28.09,28.99,19.67,0,111.3,13.09,28.94,192.0
"2010-07-20 00:33:00",14981,5.532,228.7,2.682,0.238,23.9,111.2381,28.08,28.97,19.76,0,111.3,13.09,28.93,190.7
"2010-07-20 00:33:30",14982,5.473,224.4,3.198,0.438,23.87,111.2254,28.04,28.96,20.04,0,111.4,13.09,28.89,186.4
"2010-07-20 00:34:00",14983,5.29,227.6,1.429,0.219,24.1,111.2165,28.02,28.95,19.78,0,111.4,13.09,28.87,189.6
"2010-07-20 00:34:30",14984,5.13,231.6,2.94,0.178,24.05,111.2155,28.02,28.95,19.7,0,111.4,13.09,28.87,193.6
"2010-07-20 00:35:00",14985,5.016,232.2,3.578,0.204,23.98,111.2146,28.02,28.94,19.7,0,111.4,13.09,28.87,194.2
"2010-07-20 00:35:30",14986,5.018,228.3,2.639,0.176,23.94,111.2184,28.03,28.94,19.71,0,111.4,13.09,28.88,190.3
"2010-07-20 00:36:00",14987,5.044,228.1,3.027,0.181,23.9,111.2185,28.03,28.96,19.65,0,111.4,13.09,28.88,190.1
"2010-07-20 00:36:30",14988,5.179,223.1,2.67,0.161,23.94,111.2272,28.05,28.95,19.67,0,111.4,13.09,28.90,185.1
"2010-07-20 00:37:00",14989,5.311,225.3,3.144,0.24,23.96,111.2398,28.08,28.95,19.64,0,111.4,13.09,28.93,187.3
"2010-07-20 00:37:30",14990,5.446,225.7,1.98,0.222,23.98,111.2417,28.09,28.96,19.7,0,111.4,13.09,28.94,187.7
"2010-07-20 00:38:00",14991,5.381,227.1,2.325,0.161,24.06,111.242,28.09,28.97,19.66,0,111.4,13.09,28.94,189.1
"2010-07-20 00:38:30",14992,5.343,226.4,2.127,0.147,23.96,111.242,28.09,28.96,19.7,0,111.4,13.09,28.94,188.4
"2010-07-20 00:39:00",14993,4.957,230,2.994,0.201,24.06,111.242,28.09,28.96,19.71,0,111.4,13.09,28.94,192.0
"2010-07-20 00:39:30",14994,4.966,230.9,2.897,0.126,24.08,111.2454,28.1,28.97,19.72,0,111.4,13.09,28.95,192.9
"2010-07-20 00:40:00",14995,4.585,226.2,7.021,0.253,24.1,111.2555,28.12,28.97,19.74,0,111.4,13.09,28.97,188.2
"2010-07-20 00:40:30",14996,4.512,221.9,3.97,0.252,24.08,111.2577,28.13,28.99,19.65,0,111.4,13.09,28.98,183.9
"2010-07-20 00:41:00",14997,4.566,226.3,3.097,0.128,24.25,111.2577,28.13,28.99,19.59,0,111.4,13.09,28.98,188.3
"2010-07-20 00:41:30",14998,4.761,227.9,4.949,0.195,24.36,111.2628,28.14,28.99,19.58,0,111.4,13.09,28.99,189.9
"2010-07-20 00:42:00",14999,4.928,219.8,2.253,0.201,24.24,111.2616,28.14,28.99,19.48,0,111.4,13.09,28.99,181.8
"2010-07-20 00:42:30",15000,5.338,222.1,3.292,0.374,24.19,111.2507,28.11,28.99,19.67,0,111.4,13.09,28.96,184.1
"2010-07-20 00:43:00",15001,5.113,225.1,3.474,0.337,24.34,111.242,28.09,28.98,19.57,0,111.4,13.09,28.94,187.1
"2010-07-20 00:43:30",15002,5.396,226.4,5.315,0.241,24.45,111.242,28.09,28.97,19.59,0,111.4,13.09,28.94,188.4
"2010-07-20 00:44:00",15003,5.327,226.6,3.375,0.195,24.46,111.242,28.09,28.95,19.66,0,111.4,13.09,28.94,188.6
"2010-07-20 00:44:30",15004,5.389,222.4,1.798,0.123,24.44,111.242,28.09,28.96,19.74,0,111.4,13.09,28.94,184.4
"2010-07-20 00:45:00",15005,5.392,223.6,2.758,0.264,24.46,111.24,28.08,28.97,19.86,0,111.4,13.09,28.93,185.6
"2010-07-20 00:45:30",15006,4.855,229.2,3.799,0.282,24.53,111.2403,28.08,28.96,19.69,0,111.4,13.09,28.93,191.2
"2010-07-20 00:46:00",15007,5.085,228.8,3.225,0.489,24.5,111.2372,28.08,28.95,19.94,0,111.4,13.09,28.92,190.8
"2010-07-20 00:46:30",15008,5.138,226.3,2.258,0.38,24.46,111.2283,28.05,28.95,20.05,0,111.4,13.09,28.90,188.3
"2010-07-20 00:47:00",15009,5.341,215.1,5.302,0.222,24.29,111.2145,28.02,28.95,20.65,0,111.4,13.09,28.87,177.1
"2010-07-20 00:47:30",15010,5.191,209,2.625,0.166,24.14,111.1898,27.95,28.9,21.39,0,111.4,13.09,28.80,171.0
"2010-07-20 00:48:00",15011,5.106,213.5,3.805,0.19,24.21,111.1506,27.85,28.85,21.36,0,111.4,13.09,28.70,175.5
"2010-07-20 00:48:30",15012,5.296,209.8,2.393,0.194,24.15,111.1262,27.79,28.79,21.71,0,111.4,13.09,28.64,171.8
"2010-07-20 00:49:00",15013,5.684,208.3,2.542,0.136,24.15,111.0964,27.71,28.74,21.95,0,111.4,13.08,28.56,170.3
"2010-07-20 00:49:30",15014,5.549,208.3,6.133,0.163,24.18,111.0746,27.66,28.69,21.83,0,111.4,13.08,28.51,170.3
"2010-07-20 00:50:00",15015,5.487,206.8,6.514,0.46,23.99,111.06,27.62,28.64,22.46,0,111.4,13.08,28.47,168.8
"2010-07-20 00:50:30",15016,5.83,201.1,2.126,0.202,23.94,111.03,27.54,28.57,22.61,0,111.4,13.08,28.39,163.1
"2010-07-20 00:51:00",15017,5.669,204.8,4.006,0.415,24.11,111.007,27.48,28.51,22.2,0,111.4,13.08,28.33,166.8
"2010-07-20 00:51:30",15018,5.868,204.8,3.674,0.372,24.13,111.0064,27.48,28.5,22.14,0,111.4,13.08,28.33,166.8
"2010-07-20 00:52:00",15019,5.322,196.1,2.844,0.195,24.1,111.0067,27.48,28.47,22.29,0,111.4,13.08,28.33,158.1
"2010-07-20 00:52:30",15020,5.32,205.4,5.32,0.245,24.21,111.0061,27.48,28.45,22.09,0,111.4,13.09,28.33,167.4
"2010-07-20 00:53:00",15021,5.56,203.2,4.129,0.455,24.33,111.0079,27.49,28.44,21.93,0,111.4,13.09,28.33,165.2
"2010-07-20 00:53:30",15022,5.68,206.2,4.2,0.338,24.24,111.0104,27.49,28.44,22.23,0,111.4,13.09,28.34,168.2
"2010-07-20 00:54:00",15023,5.663,207.6,2.302,0.262,24.36,111.0157,27.51,28.43,22,0,111.4,13.09,28.35,169.6
"2010-07-20 00:54:30",15024,5.644,205.6,4.915,0.393,24.43,111.0309,27.54,28.45,21.84,0,111.4,13.09,28.39,167.6
"2010-07-20 00:55:00",15025,5.681,203.8,2.929,0.205,24.33,111.0339,27.55,28.45,22.29,0,111.3,13.09,28.40,165.8
"2010-07-20 00:55:30",15026,5.348,211.2,3.023,0.262,24.5,111.0389,27.56,28.43,21.82,0,111.3,13.09,28.41,173.2
"2010-07-20 00:56:00",15027,4.836,222.4,6.476,0.309,24.64,111.0632,27.63,28.45,21.23,0,111.3,13.09,28.48,184.4
"2010-07-20 00:56:30",15028,4.376,218.9,6.895,0.364,24.66,111.0928,27.7,28.5,21.05,0,111.3,13.09,28.55,180.9
"2010-07-20 00:57:00",15029,4.796,209.5,2.642,0.107,24.44,111.1099,27.75,28.54,21.32,0,111.3,13.09,28.60,171.5
"2010-07-20 00:57:30",15030,4.957,212.9,1.131,0.117,24.48,111.1275,27.79,28.57,21.5,0,111.3,13.1,28.64,174.9
"2010-07-20 00:58:00",15031,4.87,208.5,1.367,0.094,24.42,111.1354,27.81,28.59,21.66,0,111.3,13.1,28.66,170.5
"2010-07-20 00:58:30",15032,4.849,207.3,1.657,0.161,24.43,111.134,27.81,28.58,21.86,0,111.3,13.1,28.66,169.3
"2010-07-20 00:59:00",15033,4.711,205.8,3.637,0.21,24.54,111.134,27.81,28.61,21.73,0,111.3,13.1,28.66,167.8
"2010-07-20 00:59:30",15034,4.928,202.3,1.351,0.172,24.43,111.1318,27.8,28.6,22.25,0,111.3,13.1,28.65,164.3
"2010-07-20 01:00:00",15035,5.067,205,1.947,0.118,24.42,111.1144,27.76,28.62,22.17,0,111.3,13.1,28.61,167.0
"2010-07-20 01:00:30",15036,4.991,204.8,2.488,0.117,24.43,111.1093,27.75,28.61,22.27,0,111.3,13.1,28.59,166.8
"2010-07-20 01:01:00",15037,4.89,200.2,3.275,0.114,24.29,111.1023,27.73,28.59,22.16,0,111.3,13.1,28.58,162.2
"2010-07-20 01:01:30",15038,5.041,198.4,3.387,0.253,24.33,111.1015,27.73,28.58,22.11,0,111.3,13.1,28.57,160.4
"2010-07-20 01:02:00",15039,4.826,201.3,3.653,0.271,24.32,111.0979,27.72,28.57,22.04,0,111.3,13.1,28.57,163.3
"2010-07-20 01:02:30",15040,4.919,198.3,2.698,0.196,24.36,111.0954,27.71,28.56,22.03,0,111.3,13.1,28.56,160.3
"2010-07-20 01:03:00",15041,4.656,204,4.245,0.364,24.47,111.0993,27.72,28.56,21.76,0,111.3,13.1,28.57,166.0
"2010-07-20 01:03:30",15042,4.726,193.8,5.167,0.481,24.34,111.109,27.75,28.57,21.98,0,111.3,13.1,28.59,155.8
"2010-07-20 01:04:00",15043,5.541,190.6,2.557,0.419,24.21,111.0947,27.71,28.56,22.71,0,111.3,13.1,28.56,152.6
"2010-07-20 01:04:30",15044,5.803,188.1,0.973,0.114,24.22,111.0656,27.63,28.53,23.05,0,111.3,13.1,28.48,150.1
"2010-07-20 01:05:00",15045,5.858,186.6,1.606,0.199,24.29,111.041,27.57,28.48,23.09,0,111.3,13.09,28.42,148.6
"2010-07-20 01:05:30",15046,6.035,188.9,1.209,0.107,24.36,111.0247,27.53,28.45,23.34,0,111.3,13.09,28.38,150.9
"2010-07-20 01:06:00",15047,5.749,190.4,1.516,0.304,24.44,111.0115,27.49,28.42,23.19,0,111.3,13.09,28.34,152.4
"2010-07-20 01:06:30",15048,5.529,190.3,1.817,0.132,24.51,111.0121,27.5,28.41,22.9,0,111.3,13.09,28.34,152.3
"2010-07-20 01:07:00",15049,5.931,193.4,1.493,0.327,24.54,111.0202,27.52,28.42,22.92,0,111.3,13.09,28.36,155.4
"2010-07-20 01:07:30",15050,5.774,194.5,1.995,0.263,24.58,111.032,27.55,28.42,22.77,0,111.3,13.09,28.40,156.5
"2010-07-20 01:08:00",15051,5.57,195,2.929,0.287,24.6,111.0424,27.57,28.44,22.6,0,111.3,13.09,28.42,157.0
"2010-07-20 01:08:30",15052,5.414,195.4,3.915,0.593,24.58,111.0466,27.58,28.45,22.56,0,111.3,13.09,28.43,157.4
"2010-07-20 01:09:00",15053,5.697,196.5,3.475,0.252,24.57,111.0516,27.6,28.45,22.63,0,111.3,13.09,28.45,158.5
"2010-07-20 01:09:30",15054,5.794,189.5,2.293,0.174,24.37,111.0553,27.61,28.45,23.2,0,111.3,13.09,28.46,151.5
"2010-07-20 01:10:00",15055,4.958,198.9,5.924,0.44,23.82,111.023,27.52,28.43,25.52,0,111.3,13.1,28.37,160.9
"2010-07-20 01:10:30",15056,5.872,192.7,6.145,0.414,24.48,110.9801,27.41,28.38,23.85,0,111.3,13.1,28.26,154.7
"2010-07-20 01:11:00",15057,5.464,196.4,2.834,0.377,24.2,110.9891,27.44,28.36,23.99,0,111.3,13.1,28.28,158.4
"2010-07-20 01:11:30",15058,6.055,203.9,2.345,0.246,24.37,110.9764,27.4,28.33,24.12,0,111.3,13.1,28.25,165.9
"2010-07-20 01:12:00",15059,6.235,194.4,4.542,0.346,24.16,110.9674,27.38,28.32,24.86,0,111.3,13.1,28.23,156.4
"2010-07-20 01:12:30",15060,5.785,187.1,4.701,0.53,24.13,110.9352,27.3,28.26,25.46,0,111.3,13.1,28.15,149.1
"2010-07-20 01:13:00",15061,5.595,174.4,3.927,0.251,23.76,110.8973,27.2,28.21,26.93,0,111.3,13.1,28.05,136.4
"2010-07-20 01:13:30",15062,4.896,168,3.261,0.324,24.08,110.8521,27.08,28.12,26.3,0,111.3,13.1,27.93,130.0
"2010-07-20 01:14:00",15063,5.432,169.8,5.668,0.365,24.1,110.8328,27.03,28.07,26.48,0,111.3,13.1,27.88,131.8
"2010-07-20 01:14:30",15064,5.636,172.4,2.463,0.383,24.4,110.8221,27.01,28.03,25.37,0,111.3,13.1,27.85,134.4
"2010-07-20 01:15:00",15065,5.93,171.6,6.463,0.338,24.41,110.8395,27.05,28.01,25.05,0,111.3,13.1,27.90,133.6
"2010-07-20 01:15:30",15066,6.12,176.9,3.413,0.439,24.43,110.844,27.06,28.02,25.03,0,111.3,13.1,27.91,138.9
"2010-07-20 01:16:00",15067,6.167,173.8,6.596,0.546,24.44,110.851,27.08,28.02,25.11,0,111.3,13.1,27.93,135.8
"2010-07-20 01:16:30",15068,4.542,183.5,6.74,0.617,24.6,110.8746,27.14,28.05,24.21,0,111.3,13.1,27.99,145.5
"2010-07-20 01:17:00",15069,5.252,180.5,7.675,0.5,24.57,110.9017,27.21,28.07,24.19,0,111.3,13.1,28.06,142.5
"2010-07-20 01:17:30",15070,5.83,173.6,3.353,0.5,24.19,110.9218,27.26,28.11,24.82,0,111.3,13.1,28.11,135.6
"2010-07-20 01:18:00",15071,5.863,175.2,2.293,0.192,24.38,110.9212,27.26,28.12,24.78,0,111.3,13.1,28.11,137.2
"2010-07-20 01:18:30",15072,6.141,180.5,3.56,0.276,24.48,110.93,27.29,28.14,24.32,0,111.3,13.1,28.13,142.5
"2010-07-20 01:19:00",15073,5.093,185.5,3.517,0.468,24.5,110.9469,27.33,28.14,24.17,0,111.3,13.1,28.18,147.5
"2010-07-20 01:19:30",15074,6.036,183.2,1.972,0.419,24.44,110.9614,27.37,28.16,24.41,0,111.3,13.1,28.21,145.2
"2010-07-20 01:20:00",15075,5.984,184.5,2.323,0.25,24.74,110.9686,27.38,28.19,23.68,0,111.3,13.1,28.23,146.5
"2010-07-20 01:20:30",15076,5.236,191.8,4.65,0.253,24.66,110.998,27.46,28.22,23.41,0,111.3,13.1,28.31,153.8
"2010-07-20 01:21:00",15077,4.769,197.8,4.216,0.419,24.59,111.0263,27.53,28.28,23.16,0,111.3,13.11,28.38,159.8
"2010-07-20 01:21:30",15078,4.921,194.9,2.332,0.185,24.54,111.0434,27.58,28.32,23.36,0,111.3,13.11,28.42,156.9
"2010-07-20 01:22:00",15079,5.653,191.7,2.393,0.347,24.59,111.0653,27.63,28.38,23.67,0,111.3,13.1,28.48,153.7
"2010-07-20 01:22:30",15080,5.896,191.5,2.294,0.24,24.55,111.0696,27.64,28.39,23.81,0,111.3,13.1,28.49,153.5
"2010-07-20 01:23:00",15081,5.971,186.9,0.979,0.115,24.3,111.0606,27.62,28.41,24.69,0,111.3,13.1,28.47,148.9
"2010-07-20 01:23:30",15082,6.59,187.8,1.405,0.377,24.23,111.039,27.57,28.39,25.14,0,111.3,13.1,28.41,149.8
"2010-07-20 01:24:00",15083,7.065,187.8,0.628,0.158,24.13,111.0109,27.49,28.36,25.74,0,111.2,13.1,28.34,149.8
"2010-07-20 01:24:30",15084,7.22,190.7,0.843,0.089,24.13,110.9846,27.43,28.32,26.33,0,111.2,13.1,28.27,152.7
"2010-07-20 01:25:00",15085,6.799,189.6,0.707,0.219,24.31,110.9473,27.33,28.27,26.29,0,111.2,13.1,28.18,151.6
"2010-07-20 01:25:30",15086,6.498,197.3,3.609,0.153,24.8,110.938,27.31,28.23,24.49,0,111.3,13.1,28.15,159.3
"2010-07-20 01:26:00",15087,5.843,202,4.005,0.357,24.88,110.9589,27.36,28.24,23.58,0,111.2,13.1,28.21,164.0
"2010-07-20 01:26:30",15088,5.541,201.6,4.044,0.453,24.93,110.998,27.46,28.29,23.38,0,111.2,13.1,28.31,163.6
"2010-07-20 01:27:00",15089,5.963,200,3.792,0.186,24.94,111.0346,27.55,28.32,23.1,0,111.2,13.1,28.40,162.0
"2010-07-20 01:27:30",15090,5.806,199.1,5.552,0.305,24.94,111.0678,27.64,28.39,23.04,0,111.2,13.1,28.49,161.1
"2010-07-20 01:28:00",15091,5.758,200.2,4.759,0.433,24.87,111.0907,27.7,28.45,22.82,0,111.2,13.1,28.55,162.2
"2010-07-20 01:28:30",15092,5.654,197.3,5.836,0.431,24.45,111.1076,27.74,28.49,23.99,0,111.2,13.11,28.59,159.3
"2010-07-20 01:29:00",15093,5.462,201,5.012,0.309,24.87,111.098,27.72,28.5,22.89,0,111.2,13.11,28.57,163.0
"2010-07-20 01:29:30",15094,5.331,200.4,6.017,0.516,24.83,111.1151,27.76,28.52,22.79,0,111.2,13.11,28.61,162.4
"2010-07-20 01:30:00",15095,5.962,194.3,2.104,0.198,24.95,111.1328,27.81,28.56,22.64,0,111.2,13.11,28.66,156.3
"2010-07-20 01:30:30",15096,5.786,196.6,4.215,0.277,24.91,111.1482,27.85,28.6,22.51,0,111.2,13.11,28.70,158.6
"2010-07-20 01:31:00",15097,5.32,192.4,2.246,0.167,24.88,111.1564,27.87,28.63,22.51,0,111.2,13.11,28.72,154.4
"2010-07-20 01:31:30",15098,6.07,193.2,2.35,0.304,25.06,111.1763,27.92,28.68,22.11,0,111.2,13.11,28.77,155.2
"2010-07-20 01:32:00",15099,5.973,193.7,5.907,0.335,24.7,111.1887,27.95,28.72,22.37,0,111.2,13.11,28.80,155.7
"2010-07-20 01:32:30",15100,5.975,199.2,3.779,0.263,24.73,111.1906,27.96,28.73,22.21,0,111.2,13.11,28.80,161.2
"2010-07-20 01:33:00",15101,5.903,197.9,3.853,0.256,24.58,111.2063,28,28.76,22.23,0,111.2,13.11,28.85,159.9
"2010-07-20 01:33:30",15102,5.384,195.8,1.354,0.332,24.25,111.2058,27.99,28.77,22.48,0,111.2,13.11,28.84,157.8
"2010-07-20 01:34:00",15103,5.504,186.9,4.026,0.668,23.44,111.1794,27.93,28.77,23.97,0,111.2,13.11,28.78,148.9
"2010-07-20 01:34:30",15104,6.281,185.8,0.827,0.094,23.99,111.123,27.78,28.7,23.8,0,111.2,13.11,28.63,147.8
"2010-07-20 01:35:00",15105,6.326,186.6,0.65,0.061,24.48,111.1036,27.73,28.63,22.69,0,111.2,13.11,28.58,148.6
"2010-07-20 01:35:30",15106,6.524,187.9,0.646,0.104,24.43,111.1146,27.76,28.63,22.74,0,111.2,13.11,28.61,149.9
"2010-07-20 01:36:00",15107,6.589,188,0.545,0.072,24.51,111.1171,27.77,28.65,22.8,0,111.2,13.11,28.61,150.0
"2010-07-20 01:36:30",15108,6.508,188.4,0.451,0.037,24.45,111.1401,27.83,28.66,22.8,0,111.2,13.11,28.67,150.4
"2010-07-20 01:37:00",15109,6.431,189.1,0.511,0.047,24.37,111.1485,27.85,28.68,22.76,0,111.2,13.11,28.70,151.1
"2010-07-20 01:37:30",15110,6.443,190.2,0.434,0.041,24.34,111.1491,27.85,28.7,22.79,0,111.2,13.11,28.70,152.2
"2010-07-20 01:38:00",15111,6.379,191.2,0.524,0.053,24.31,111.1553,27.86,28.69,22.79,0,111.2,13.11,28.71,153.2
"2010-07-20 01:38:30",15112,6.343,191.8,0.595,0.063,24.29,111.1575,27.87,28.71,22.82,0,111.2,13.11,28.72,153.8
"2010-07-20 01:39:00",15113,6.233,193.1,0.583,0.035,24.36,111.1623,27.88,28.73,22.76,0,111.2,13.11,28.73,155.1
"2010-07-20 01:39:30",15114,6.084,193.8,0.487,0.055,24.5,111.1769,27.92,28.74,22.71,0,111.2,13.11,28.77,155.8
"2010-07-20 01:40:00",15115,6.144,192.8,0.506,0.081,24.5,111.1822,27.93,28.75,22.73,0,111.2,13.11,28.78,154.8
"2010-07-20 01:40:30",15116,6.291,193,0.965,0.131,24.39,111.1822,27.93,28.75,22.73,0,111.2,13.11,28.78,155.0
"2010-07-20 01:41:00",15117,6.558,194.1,0.402,0.073,24.44,111.1822,27.93,28.76,22.77,0,111.2,13.11,28.78,156.1
"2010-07-20 01:41:30",15118,6.706,194.1,0.396,0.081,24.47,111.1822,27.93,28.77,22.84,0,111.2,13.11,28.78,156.1
"2010-07-20 01:42:00",15119,6.753,193.4,0.526,0.083,24.51,111.1822,27.93,28.78,22.85,0,111.2,13.1,28.78,155.4
"2010-07-20 01:42:30",15120,6.56,193.6,0.536,0.079,24.49,111.1822,27.93,28.77,22.86,0,111.2,13.1,28.78,155.6
"2010-07-20 01:43:00",15121,6.604,193.5,0.515,0.049,24.5,111.1822,27.93,28.77,22.85,0,111.2,13.1,28.78,155.5
"2010-07-20 01:43:30",15122,6.514,193,0.723,0.077,24.42,111.1816,27.93,28.77,22.86,0,111.2,13.1,28.78,155.0
"2010-07-20 01:44:00",15123,6.445,191.5,0.547,0.057,24.37,111.1786,27.92,28.76,22.88,0,111.2,13.1,28.77,153.5
"2010-07-20 01:44:30",15124,6.441,191.1,0.359,0.048,24.36,111.1673,27.9,28.76,22.9,0,111.2,13.11,28.74,153.1
"2010-07-20 01:45:00",15125,6.507,191.3,0.477,0.125,24.4,111.157,27.87,28.75,22.95,0,111.2,13.11,28.72,153.3
"2010-07-20 01:45:30",15126,6.427,192,0.706,0.092,24.35,111.1525,27.86,28.74,23.02,0,111.2,13.11,28.71,154.0
"2010-07-20 01:46:00",15127,6.266,192.3,0.402,0.048,24.34,111.1485,27.85,28.73,23.08,0,111.2,13.11,28.70,154.3
"2010-07-20 01:46:30",15128,6.355,192.5,0.517,0.057,24.33,111.1485,27.85,28.72,23.19,0,111.2,13.11,28.70,154.5
"2010-07-20 01:47:00",15129,6.515,192.3,0.576,0.095,24.45,111.1482,27.85,28.7,23.29,0,111.2,13.11,28.70,154.3
"2010-07-20 01:47:30",15130,6.502,191.6,0.604,0.065,24.4,111.1469,27.84,28.69,23.34,0,111.2,13.11,28.69,153.6
"2010-07-20 01:48:00",15131,6.45,191.1,0.31,0.08,24.38,111.1415,27.83,28.69,23.48,0,111.2,13.11,28.68,153.1
"2010-07-20 01:48:30",15132,6.485,190.9,0.54,0.079,24.41,111.1255,27.79,28.67,23.57,0,111.2,13.11,28.64,152.9